[[{"header":{"parameterUnit":"m.s-1","parameterCategory":1,"la1":30.2992,"la2":30.254,"lo1":-89.0895,"lo2":-89.0443,"dy":0.0025,"dx":0.0025,"nx":19,"ny":19,"refTime":"2026-05-14T09:00:00:Z","depth":0,"parameterNumber":2,"parameterNumberName":"U-component_of_WINDS"},"data":[0,0,0,-4.4827,-4.4828,-4.4846,-4.4846,-4.4913,-4.4914,0,0,0,0,0,0,0,0,0,0,0,-4.4848,-4.4849,-4.4827,-4.4828,-4.4846,-4.4846,-4.4913,-4.4914,0,0,0,0,0,0,0,0,0,0,0,-4.4847,-4.4849,-4.485,-4.4828,-4.4846,-4.4846,-4.4913,-4.4883,0,0,0,0,0,0,0,0,0,0,-4.4858,-4.4903,-4.4848,-4.485,-4.4828,-4.4846,-4.4846,-4.4881,-4.4885,-4.4923,0,-4.4964,0,-4.494,-4.4921,-4.4922,0,0,0,-4.4809,-4.49,-4.4881,-4.4851,-4.4829,-4.4846,-4.4833,-4.4883,-4.4888,-4.4929,-4.4964,-4.4966,-4.4941,-4.4922,-4.4923,-4.5205,-4.5207,0,0,-4.4808,-4.4865,-4.4878,-4.4885,-4.4885,-4.4832,-4.4833,-4.4885,-4.4928,-4.4965,-4.4967,-4.4943,-4.4923,-4.4924,-4.5203,-4.5205,0,0,0,-4.4818,-4.4866,-4.4844,-4.4884,-4.4884,-4.4833,-4.4834,-4.4925,-4.4914,-4.4967,-4.4943,-4.4923,-4.4925,-4.52,-4.5204,-4.5368,0,0,0,-4.4816,-4.4871,-4.4845,-4.488,-4.4884,-4.4905,-4.4875,-4.491,-4.4914,-4.4943,-4.4923,-4.4926,-4.5198,-4.5202,-4.5358,-4.5436,0,0,0,-4.4838,-4.4873,-4.4885,-4.4883,-4.4893,-4.4902,-4.4893,-4.491,-4.4901,-4.4922,-4.4926,-4.5196,-4.5201,-4.5349,-4.5421,-4.5526,0,0,0,-4.4877,-4.5032,-4.4889,-4.5052,-4.4893,-4.5004,-4.4892,-4.4972,-4.501,-4.4924,-4.5198,-4.5203,-4.5346,-4.5412,-4.5517,-4.5623,-4.5673,0,0,-4.5105,-4.5062,-4.5153,-4.5025,-4.5176,-4.4997,-4.5172,-4.5153,-4.5103,-4.5174,-4.518,-4.5361,-4.542,-4.5524,-4.5936,-4.5976,0,0,0,-4.5245,-4.5311,-4.5339,-4.5377,-4.5365,-4.5361,-4.5309,-4.5302,-4.5359,-4.5151,-4.5426,-4.546,-4.5518,-4.5566,-4.56,-4.5646,-4.5228,-4.5228,-4.5227,-4.5649,-4.5576,-4.5722,-4.5651,-4.569,-4.5633,-4.5658,-4.5638,-4.5554,-4.5621,-4.5641,-4.59,-4.5959,-4.5984,-4.6032,-4.5692,-4.5693,-4.5694,-4.5694,-4.5974,-4.6056,-4.594,-4.6039,-4.5962,-4.6045,-4.5998,-4.5935,-4.6001,-4.5879,-4.5927,-4.5798,-4.603,-4.6069,-4.5706,-4.5704,-4.5702,-4.5701,-4.57,-4.6229,-4.6255,-4.6243,-4.6289,-4.6334,-4.6257,-4.6326,-4.6253,-4.6185,-4.6232,-4.6245,-4.6242,-4.6228,-4.6244,-4.6245,-4.6246,-4.6246,-4.6247,-4.6247,-4.6498,-4.6479,-4.6545,-4.6545,-4.6559,-4.6569,-4.6514,-4.6526,-4.6521,-4.6463,-4.6462,-4.6371,-4.6067,-4.5991,-4.6261,-4.6259,-4.6257,-4.6256,-4.6255,-4.6852,-4.676,-4.6862,-4.6877,-4.687,-4.6918,-4.6824,-4.6856,-4.6855,-4.6891,-4.679,-4.6578,-4.6528,-4.6501,-4.6437,-4.6806,-4.6806,-4.6806,-4.6806,-4.7066,-4.7034,-4.7121,-4.7148,-4.7166,-4.7092,-4.721,-4.717,-4.7113,-4.7109,-4.7045,-4.6955,-4.6931,-4.6896,-4.6859,-4.6799,-4.7252,-4.7252,-4.7253,-4.7278,-4.7244,-4.7358,-4.7301,-4.729,-4.7283,-4.7392,-4.7428,-4.7346,-4.7269,-4.7103,-4.7084,-4.6938,-4.6895,-4.6813,-4.6759,-4.6646,0,0]},{"header":{"parameterUnit":"m.s-1","parameterCategory":1,"la1":30.2992,"la2":30.254,"lo1":-89.0895,"lo2":-89.0443,"dy":0.0025,"dx":0.0025,"nx":19,"ny":19,"refTime":"2026-05-14T09:00:00:Z","depth":0,"parameterNumber":3,"parameterNumberName":"V-component_of_WINDS"},"data":[0,0,0,0.1367,0.1365,0.1253,0.1253,0.1135,0.1135,0,0,0,0,0,0,0,0,0,0,0,0.1418,0.1418,0.1368,0.1365,0.1253,0.1252,0.1136,0.1135,0,0,0,0,0,0,0,0,0,0,0,0.1418,0.1418,0.1417,0.1365,0.1253,0.1252,0.1136,0.1211,0,0,0,0,0,0,0,0,0,0,0.1315,0.1378,0.1418,0.1417,0.1364,0.1253,0.1252,0.1214,0.1206,0.1198,0,0.1196,0,0.1164,0.1129,0.1128,0,0,0,0.1352,0.1385,0.134,0.1417,0.1363,0.1254,0.13,0.1209,0.12,0.1188,0.1195,0.1189,0.1162,0.1128,0.1128,0.113,0.1131,0,0,0.1358,0.1406,0.1346,0.1335,0.1355,0.1304,0.1297,0.1203,0.1213,0.1194,0.1186,0.116,0.1127,0.1127,0.113,0.113,0,0,0,0.1385,0.1411,0.1367,0.134,0.1318,0.1301,0.1293,0.1217,0.1199,0.1185,0.1159,0.1127,0.1126,0.1129,0.113,0.1211,0,0,0,0.1388,0.1427,0.1371,0.1399,0.1321,0.1267,0.131,0.1206,0.1194,0.1159,0.1127,0.1125,0.1128,0.1129,0.1207,0.1241,0,0,0,0.1419,0.143,0.142,0.1402,0.1356,0.1267,0.1243,0.1202,0.1179,0.1128,0.1125,0.1127,0.1129,0.1203,0.1235,0.1257,0,0,0,0.1466,0.1491,0.1422,0.144,0.1357,0.1318,0.1243,0.1211,0.1177,0.1126,0.1128,0.113,0.1202,0.1231,0.1254,0.1286,0.1304,0,0,0.1524,0.15,0.1507,0.1442,0.1428,0.1331,0.1328,0.125,0.12,0.1156,0.1155,0.1208,0.1234,0.1257,0.1383,0.1397,0,0,0,0.1542,0.1548,0.1533,0.1505,0.1448,0.1401,0.1319,0.129,0.1251,0.1188,0.1219,0.1234,0.1245,0.1258,0.127,0.1277,0.1138,0.1137,0.1137,0.1694,0.1631,0.1638,0.1562,0.1535,0.1452,0.1424,0.1371,0.1312,0.1321,0.1308,0.1393,0.141,0.1419,0.1427,0.1318,0.1319,0.1319,0.1319,0.1776,0.1775,0.1699,0.168,0.1613,0.1595,0.1515,0.1475,0.1448,0.1397,0.1403,0.1354,0.1437,0.1441,0.1325,0.1324,0.1323,0.1322,0.1322,0.187,0.1859,0.1825,0.1779,0.175,0.1671,0.165,0.1588,0.1529,0.1535,0.1516,0.1515,0.1507,0.153,0.1531,0.1531,0.1531,0.1531,0.1532,0.1982,0.1941,0.1932,0.1876,0.185,0.1809,0.1726,0.1699,0.1653,0.1609,0.1609,0.1551,0.1456,0.1435,0.1536,0.1535,0.1535,0.1534,0.1534,0.2091,0.2057,0.2044,0.2019,0.1948,0.1925,0.1846,0.1797,0.1765,0.1757,0.1697,0.1637,0.1607,0.1597,0.1579,0.171,0.171,0.171,0.171,0.2173,0.2151,0.2125,0.209,0.2048,0.1976,0.1963,0.1899,0.1827,0.1803,0.1775,0.1745,0.1738,0.1712,0.1699,0.1681,0.1836,0.1836,0.1836,0.2237,0.221,0.2211,0.2143,0.2083,0.2033,0.2019,0.1981,0.1891,0.184,0.1784,0.1779,0.173,0.1717,0.1667,0.1648,0.1614,0,0]}]]